Tracking 35274 objects as of 10-Sep-2026
HD Live streaming from Space Station
objects crossing your sky now

RUBIN 2

Track RUBIN 2 now!
10-day predictions
RUBIN 2 is classified as:


NORAD ID: 27605
Int'l Code: 2002-058A
Launch date: December 20, 2002
Source: Germany (GER)
Launch site: TYURATAM MISSILE AND SPACE COMPLEX (TTMTR)

Uplink (MHz): 435.275
Downlink (MHz): 145.825
Beacon (MHz):
Mode: U/1k2 D/9k6 MSK
Call sign:
Status: Inactive

Your satellite tracking list
Your tracking list is empty




NASA's NSSDC Master Catalog

Two Line Element Set (TLE):
1 27605U 02058A   26253.63927193  .00000282  00000-0  55376-4 0  9995
2 27605  64.5522 227.6077 0075985 247.0726 112.2346 14.79531698277221
Source of the keplerian elements: AFSPC